Time,TemperatureF,DewpointF,PressureIn,WindDirection,WindDirectionDegrees,WindSpeedMPH,WindSpeedGustMPH,Humidity,HourlyPrecipIn,Conditions,Clouds,dailyrainin,SoftwareType,DateUTC
2013-03-26 00:02:00,33.0,26.0,30.06,NNE,24,0.0,1.0,74,0.00,,,0.00,,2013-03-26 05:02:00,
2013-03-26 00:12:00,33.0,26.0,30.06,NNE,24,0.0,1.0,74,0.00,,,0.00,,2013-03-26 05:12:00,
2013-03-26 00:22:00,33.0,26.0,30.06,NNE,24,0.0,2.0,74,0.00,,,0.00,,2013-03-26 05:22:00,
2013-03-26 00:32:00,32.0,25.0,30.06,NNE,24,0.0,2.0,75,0.00,,,0.00,,2013-03-26 05:32:00,
2013-03-26 00:42:00,32.0,25.0,30.06,NNE,24,0.0,2.0,75,0.00,,,0.00,,2013-03-26 05:42:00,
2013-03-26 00:52:00,32.0,25.0,30.06,NNE,24,0.0,1.0,75,0.00,,,0.00,,2013-03-26 05:52:00,
2013-03-26 01:02:00,32.0,25.0,30.07,NNE,24,1.0,2.0,76,0.00,,,0.00,,2013-03-26 06:02:00,
2013-03-26 01:12:00,32.0,25.0,30.07,NNE,24,1.0,2.0,76,0.00,,,0.00,,2013-03-26 06:12:00,
2013-03-26 01:22:00,32.0,25.0,30.07,NW,306,1.0,6.0,76,0.00,,,0.00,,2013-03-26 06:22:00,
2013-03-26 01:32:00,32.0,25.0,30.08,NW,325,1.0,5.0,76,0.00,,,0.00,,2013-03-26 06:32:00,
2013-03-26 01:42:00,32.0,25.0,30.08,NW,325,1.0,5.0,76,0.00,,,0.00,,2013-03-26 06:42:00,
2013-03-26 01:52:00,32.0,25.0,30.08,NW,325,1.0,4.0,76,0.00,,,0.00,,2013-03-26 06:52:00,
2013-03-26 02:02:00,31.0,24.0,30.08,NW,321,1.0,4.0,76,0.00,,,0.00,,2013-03-26 07:02:00,
2013-03-26 02:12:00,31.0,24.0,30.08,NW,321,1.0,4.0,76,0.00,,,0.00,,2013-03-26 07:12:00,
2013-03-26 02:22:00,31.0,24.0,30.08,NW,321,1.0,5.0,76,0.00,,,0.00,,2013-03-26 07:22:00,
2013-03-26 02:33:00,31.0,24.0,30.08,NW,321,0.0,3.0,76,0.00,,,0.00,,2013-03-26 07:33:00,
2013-03-26 02:42:00,31.0,24.0,30.08,NW,321,0.0,3.0,76,0.00,,,0.00,,2013-03-26 07:42:00,
2013-03-26 02:52:00,31.0,24.0,30.08,NW,321,0.0,3.0,76,0.00,,,0.00,,2013-03-26 07:52:00,
2013-03-26 03:02:00,31.0,24.0,30.08,NE,46,1.0,5.0,76,0.00,,,0.00,,2013-03-26 08:02:00,
2013-03-26 03:12:00,31.0,24.0,30.08,NE,46,1.0,5.0,76,0.00,,,0.00,,2013-03-26 08:12:00,
2013-03-26 03:22:00,30.0,24.0,30.08,NW,322,1.0,3.0,77,0.00,,,0.00,,2013-03-26 08:22:00,
2013-03-26 03:32:00,30.0,24.0,30.08,NW,322,0.0,3.0,77,0.00,,,0.00,,2013-03-26 08:32:00,
2013-03-26 03:42:00,30.0,24.0,30.08,NW,322,0.0,3.0,77,0.00,,,0.00,,2013-03-26 08:42:00,
2013-03-26 03:52:00,30.0,24.0,30.08,NW,322,0.0,3.0,77,0.00,,,0.00,,2013-03-26 08:52:00,
2013-03-26 04:02:00,30.0,24.0,30.08,NW,322,0.0,3.0,77,0.00,,,0.00,,2013-03-26 09:02:00,
2013-03-26 04:12:00,30.0,24.0,30.08,NW,322,0.0,3.0,77,0.00,,,0.00,,2013-03-26 09:12:00,
2013-03-26 09:23:00,30.0,23.0,30.16,NW,307,3.0,9.0,75,0.00,,,0.00,,2013-03-26 14:23:00,
2013-03-26 09:33:00,31.0,24.0,30.16,NW,323,2.0,7.0,74,0.00,,,0.00,,2013-03-26 14:33:00,
2013-03-26 09:42:00,31.0,24.0,30.16,NW,323,2.0,7.0,74,0.00,,,0.00,,2013-03-26 14:42:00,
2013-03-26 09:53:00,31.0,23.0,30.16,West,264,5.0,10.0,73,0.00,,,0.00,,2013-03-26 14:53:00,
2013-03-26 10:02:00,31.0,23.0,30.17,NW,322,4.0,8.0,73,0.00,,,0.00,,2013-03-26 15:02:00,
2013-03-26 10:12:00,31.0,23.0,30.17,NW,322,4.0,8.0,73,0.00,,,0.00,,2013-03-26 15:12:00,
2013-03-26 10:22:00,32.0,24.0,30.17,WNW,294,4.0,9.0,72,0.00,,,0.00,,2013-03-26 15:22:00,
2013-03-26 10:33:00,32.0,24.0,30.17,WNW,294,4.0,9.0,72,0.00,,,0.00,,2013-03-26 15:33:00,
2013-03-26 10:43:00,32.0,24.0,30.17,WNW,294,4.0,9.0,72,0.00,,,0.00,,2013-03-26 15:43:00,
2013-03-26 10:53:00,32.0,24.0,30.17,WNW,294,4.0,9.0,72,0.00,,,0.00,,2013-03-26 15:53:00,
2013-03-26 11:02:00,32.0,24.0,30.17,WNW,294,4.0,9.0,72,0.00,,,0.00,,2013-03-26 16:02:00,
2013-03-26 11:33:00,33.0,24.0,30.17,WNW,286,5.0,9.0,70,0.00,,,0.00,,2013-03-26 16:33:00,
2013-03-26 11:42:00,33.0,24.0,30.17,WNW,286,5.0,9.0,70,0.00,,,0.00,,2013-03-26 16:42:00,
2013-03-26 11:53:00,34.0,26.0,30.17,NW,313,5.0,9.0,72,0.00,,,0.00,,2013-03-26 16:53:00,
2013-03-26 12:02:00,35.0,26.0,30.17,West,271,6.0,11.0,70,0.00,,,0.00,,2013-03-26 17:02:00,
2013-03-26 12:12:00,35.0,26.0,30.17,West,271,6.0,11.0,70,0.00,,,0.00,,2013-03-26 17:12:00,
2013-03-26 12:23:00,35.0,26.0,30.17,NW,307,6.0,11.0,70,0.00,,,0.00,,2013-03-26 17:23:00,
2013-03-26 12:32:00,36.0,27.0,30.17,WNW,298,5.0,8.0,69,0.00,,,0.00,,2013-03-26 17:32:00,
2013-03-26 12:42:00,36.0,27.0,30.17,WNW,298,5.0,8.0,69,0.00,,,0.00,,2013-03-26 17:42:00,
2013-03-26 12:53:00,36.0,27.0,30.17,West,259,5.0,9.0,70,0.00,,,0.00,,2013-03-26 17:53:00,
2013-03-26 13:02:00,37.0,28.0,30.17,NNW,348,3.0,9.0,70,0.00,,,0.00,,2013-03-26 18:02:00,
2013-03-26 13:12:00,37.0,28.0,30.17,NNW,348,3.0,9.0,70,0.00,,,0.00,,2013-03-26 18:12:00,
2013-03-26 13:23:00,36.0,27.0,30.17,NNW,336,4.0,9.0,70,0.00,,,0.00,,2013-03-26 18:23:00,
2013-03-26 13:33:00,36.0,27.0,30.17,West,279,5.0,8.0,69,0.00,,,0.00,,2013-03-26 18:33:00,
2013-03-26 13:42:00,36.0,27.0,30.17,West,279,5.0,8.0,69,0.00,,,0.00,,2013-03-26 18:42:00,
2013-03-26 13:53:00,37.0,27.0,30.17,WSW,248,3.0,11.0,68,0.00,,,0.00,,2013-03-26 18:53:00,
2013-03-26 14:02:00,38.0,28.0,30.17,NW,317,1.0,8.0,68,0.00,,,0.00,,2013-03-26 19:02:00,
2013-03-26 14:12:00,38.0,28.0,30.17,NW,317,1.0,8.0,68,0.00,,,0.00,,2013-03-26 19:12:00,
2013-03-26 14:22:00,38.0,28.0,30.17,NW,326,5.0,10.0,66,0.00,,,0.00,,2013-03-26 19:22:00,
2013-03-26 14:32:00,38.0,28.0,30.16,West,273,5.0,10.0,68,0.00,,,0.00,,2013-03-26 19:32:00,
2013-03-26 14:42:00,38.0,28.0,30.16,West,273,5.0,10.0,68,0.00,,,0.00,,2013-03-26 19:42:00,
2013-03-26 14:53:00,39.0,29.0,30.16,NW,307,3.0,10.0,66,0.00,,,0.00,,2013-03-26 19:53:00,
2013-03-26 15:02:00,39.0,28.0,30.16,WNW,284,4.0,10.0,65,0.00,,,0.00,,2013-03-26 20:02:00,
2013-03-26 15:12:00,39.0,28.0,30.16,WNW,284,4.0,10.0,65,0.00,,,0.00,,2013-03-26 20:12:00,
2013-03-26 15:22:00,39.0,28.0,30.16,NW,315,5.0,9.0,64,0.00,,,0.00,,2013-03-26 20:22:00,
2013-03-26 15:32:00,40.0,28.0,30.16,NW,310,3.0,8.0,62,0.00,,,0.00,,2013-03-26 20:32:00,
2013-03-26 15:42:00,40.0,28.0,30.16,NW,310,3.0,8.0,62,0.00,,,0.00,,2013-03-26 20:42:00,
2013-03-26 15:52:00,40.0,28.0,30.16,WNW,288,5.0,9.0,62,0.00,,,0.00,,2013-03-26 20:52:00,
2013-03-26 16:02:00,40.0,28.0,30.16,WSW,257,4.0,9.0,61,0.00,,,0.00,,2013-03-26 21:02:00,
2013-03-26 16:12:00,40.0,28.0,30.16,WSW,257,4.0,9.0,61,0.00,,,0.00,,2013-03-26 21:12:00,
2013-03-26 16:22:00,40.0,27.0,30.16,WSW,238,4.0,9.0,60,0.00,,,0.00,,2013-03-26 21:22:00,
2013-03-26 16:32:00,40.0,27.0,30.16,WSW,238,4.0,9.0,60,0.00,,,0.00,,2013-03-26 21:32:00,
2013-03-26 16:42:00,40.0,27.0,30.16,WSW,238,4.0,9.0,60,0.00,,,0.00,,2013-03-26 21:42:00,
2013-03-26 16:52:00,40.0,27.0,30.16,WSW,238,4.0,9.0,60,0.00,,,0.00,,2013-03-26 21:52:00,
2013-03-26 17:22:00,41.0,27.0,30.16,WSW,257,5.0,9.0,58,0.00,,,0.00,,2013-03-26 22:22:00,
2013-03-26 17:33:00,41.0,27.0,30.16,WSW,257,5.0,9.0,58,0.00,,,0.00,,2013-03-26 22:33:00,
2013-03-26 17:42:00,41.0,27.0,30.16,WSW,257,5.0,9.0,58,0.00,,,0.00,,2013-03-26 22:42:00,
2013-03-26 17:52:00,41.0,27.0,30.16,WSW,257,5.0,9.0,58,0.00,,,0.00,,2013-03-26 22:52:00,
2013-03-26 18:22:00,38.0,27.0,30.17,West,259,2.0,7.0,63,0.00,,,0.00,,2013-03-26 23:22:00,
2013-03-26 18:32:00,38.0,26.0,30.17,NW,309,3.0,7.0,62,0.00,,,0.00,,2013-03-26 23:32:00,
2013-03-26 18:43:00,38.0,26.0,30.17,NW,309,3.0,7.0,62,0.00,,,0.00,,2013-03-26 23:43:00,
2013-03-26 18:52:00,38.0,27.0,30.17,WNW,291,1.0,7.0,64,0.00,,,0.00,,2013-03-26 23:52:00,
2013-03-26 19:02:00,37.0,26.0,30.17,West,271,3.0,6.0,63,0.00,,,0.00,,2013-03-27 00:02:00,
2013-03-26 19:12:00,37.0,26.0,30.17,West,271,3.0,6.0,63,0.00,,,0.00,,2013-03-27 00:12:00,
2013-03-26 19:22:00,37.0,26.0,30.18,WNW,298,0.0,7.0,64,0.00,,,0.00,,2013-03-27 00:22:00,
2013-03-26 19:32:00,37.0,26.0,30.18,WNW,299,1.0,6.0,64,0.00,,,0.00,,2013-03-27 00:32:00,
2013-03-26 19:42:00,37.0,26.0,30.18,WNW,299,1.0,6.0,64,0.00,,,0.00,,2013-03-27 00:42:00,
2013-03-26 19:52:00,37.0,26.0,30.18,WNW,294,1.0,2.0,65,0.00,,,0.00,,2013-03-27 00:52:00,
2013-03-26 20:02:00,36.0,25.0,30.19,WSW,244,1.0,5.0,65,0.00,,,0.00,,2013-03-27 01:02:00,
2013-03-26 20:12:00,36.0,25.0,30.19,WSW,244,1.0,5.0,65,0.00,,,0.00,,2013-03-27 01:12:00,
2013-03-26 20:22:00,36.0,26.0,30.19,West,273,0.0,4.0,66,0.00,,,0.00,,2013-03-27 01:22:00,
2013-03-26 20:33:00,36.0,26.0,30.19,NW,309,0.0,4.0,66,0.00,,,0.00,,2013-03-27 01:33:00,
2013-03-26 20:42:00,36.0,26.0,30.19,NW,309,0.0,4.0,66,0.00,,,0.00,,2013-03-27 01:42:00,
2013-03-26 20:53:00,36.0,25.0,30.19,West,279,3.0,7.0,65,0.00,,,0.00,,2013-03-27 01:53:00,
2013-03-26 21:02:00,36.0,26.0,30.19,WNW,286,1.0,5.0,66,0.00,,,0.00,,2013-03-27 02:02:00,
2013-03-26 21:12:00,36.0,26.0,30.19,WNW,286,1.0,5.0,66,0.00,,,0.00,,2013-03-27 02:12:00,
2013-03-26 21:22:00,36.0,26.0,30.19,WSW,255,4.0,8.0,66,0.00,,,0.00,,2013-03-27 02:22:00,
2013-03-26 21:32:00,35.0,25.0,30.20,WNW,284,2.0,5.0,67,0.00,,,0.00,,2013-03-27 02:32:00,
2013-03-26 21:42:00,35.0,25.0,30.20,WNW,284,2.0,5.0,67,0.00,,,0.00,,2013-03-27 02:42:00,
2013-03-26 21:53:00,35.0,25.0,30.20,West,280,0.0,6.0,67,0.00,,,0.00,,2013-03-27 02:53:00,
2013-03-26 22:02:00,35.0,25.0,30.20,WNW,288,0.0,7.0,67,0.00,,,0.00,,2013-03-27 03:02:00,
2013-03-26 22:12:00,35.0,25.0,30.20,WNW,288,0.0,7.0,67,0.00,,,0.00,,2013-03-27 03:12:00,
2013-03-26 22:22:00,35.0,25.0,30.20,West,276,1.0,4.0,67,0.00,,,0.00,,2013-03-27 03:22:00,
2013-03-26 22:33:00,34.0,25.0,30.20,West,265,1.0,6.0,68,0.00,,,0.00,,2013-03-27 03:33:00,
2013-03-26 22:42:00,34.0,25.0,30.20,West,265,1.0,6.0,68,0.00,,,0.00,,2013-03-27 03:42:00,
2013-03-26 22:53:00,34.0,25.0,30.20,West,275,2.0,5.0,68,0.00,,,0.00,,2013-03-27 03:53:00,
2013-03-26 23:02:00,34.0,25.0,30.20,WNW,299,1.0,6.0,68,0.00,,,0.00,,2013-03-27 04:02:00,
2013-03-26 23:13:00,34.0,25.0,30.20,WNW,299,1.0,6.0,68,0.00,,,0.00,,2013-03-27 04:13:00,
2013-03-26 23:23:00,34.0,25.0,30.20,West,281,2.0,6.0,69,0.00,,,0.00,,2013-03-27 04:23:00,
2013-03-26 23:33:00,34.0,25.0,30.21,West,271,3.0,6.0,69,0.00,,,0.00,,2013-03-27 04:33:00,
2013-03-26 23:42:00,34.0,25.0,30.21,West,271,3.0,6.0,69,0.00,,,0.00,,2013-03-27 04:42:00,
2013-03-26 23:52:00,34.0,25.0,30.21,NW,305,1.0,6.0,68,0.00,,,0.00,,2013-03-27 04:52:00,